Warning: Javascript must be enabled to use all the features on this page!


Page Loading - Please Wait...

Click to hideNews Bulletins

Streamflow Measurements for the Nation


USGS 11455335 SACRAMENTO R DEEP WATER SHIP CHANNEL NR RIO VISTA


Solano County, California
Hydrologic Unit Code 18020163
Latitude  38°15'22", Longitude 121°40'00" NAD83
Output formats
HTML table with channel data
HTML table without channel data
Tab-separated data with channel data
Tab-separated data without channel data
Graph of data
Reselect output format
Meas.
Number
  Date       Time Time
Datum
Measurement
Used?
  Who Measuring
Agency
Stream
flow
(ft3/s)
Gage
Height
(ft)
GH
Change
(ft)
Meas.
Duration
(hr)
Meas.
Rated
  Control Flow
Adjust.
Code
 
3912019-06-25 12:56:30PSTYesZH,BG,TDUSGS1710023.04 Poor NONE
3902019-06-25 12:51:08PSTYesZH,BG,TDUSGS1640023.09 Poor NONE
3892019-06-25 12:45:41PSTYesZH,BG,TDUSGS1700023.14 Poor NONE
3882019-06-25 12:41:01PSTYesZH,BG,TDUSGS1660023.18 Poor NONE
3872019-06-25 12:36:59PSTYesZH,BG,TDUSGS1690023.22 Poor NONE
3862019-06-25 12:32:05PSTYesZH,BG,TDUSGS1670023.26 Poor NONE
3852019-05-01 09:43:26PSTYesZH, BTGUSGS391022.40 Poor NONE
3842019-05-01 09:33:05PSTYesZH, BTGUSGS452023.09 Poor NONE
3832019-05-01 09:22:06PSTYesZH, BTGUSGS581023.14 Poor NONE
3822019-05-01 09:14:50PSTYesZH, BTGUSGS621023.18 Poor NONE
3812019-05-01 09:06:27PSTYesZH, BTGUSGS694022.42 Poor NONE
3802019-05-01 08:50PSTYesZH, BTGUSGS696022.43 Poor NONE
3792019-01-30 11:57:29PSTYesBTG/NSUSGS-972025.59 Fair NONE
3782019-01-30 11:50:57PSTYesBTG/NSUSGS-1060025.57 Poor NONE
3772019-01-30 11:44:27PSTYesBTG/NSUSGS-1160025.52 Fair NONE
3762019-01-30 11:37:26PSTYesBTG/NSUSGS-1250025.47 Fair NONE
3752019-01-30 11:30:13PSTYesBTG/NSUSGS-1270025.42 Fair NONE
3742019-01-30 11:23:02PSTYesBTG/NSUSGS-1350025.37 Fair NONE
3732018-10-30 12:34:32PSTYesBTG/MIUSGS1270023.05 Poor NONE
3722018-10-30 12:29:47PSTYesBTG/MIUSGS1280023.10 Poor NONE
3712018-10-30 12:25:28PSTYesBTG/MIUSGS1290023.13 Poor NONE
3702018-10-30 12:20:47PSTYesBTG/MIUSGS1240023.16 Poor NONE
3692018-10-30 12:14:17PSTYesBTG/MIUSGS1260023.22 Poor NONE
3682018-10-30 12:08:14PSTYesBTG/MIUSGS1200023.27 Poor NONE
3672018-09-07 09:47:38PSTYesBG/MP/TDUSGS882021.27 Fair NONE
3662018-09-07 09:42:40PSTYesBG/MP/TDUSGS924021.27 Fair NONE
3652018-09-07 09:37:12PSTYesBG/MP/TDUSGS1020021.28 Fair NONE
3642018-09-07 09:32:45PSTYesBG/MP/TDUSGS1030021.28 Fair NONE
3632018-09-07 09:26:38PSTYesBG/MP/TDUSGS1100021.30 Fair NONE
3622018-09-07 09:21:52PSTYesBG/MP/TDUSGS1100021.32 Fair NONE
3612018-07-17 13:18:05PSTYesALC/BTG/TNDUSGS1140021.92 Fair NONE
3602018-07-17 13:12:27PSTYesALC/BTG/TNDUSGS1120021.98 Fair NONE
3592018-07-17 13:06:34PSTYesALC/BTG/TNDUSGS1130022.03 Fair NONE
3582018-07-17 13:01:13PSTYesALC/BTG/TNDUSGS1110022.08 Fair NONE
3572018-07-17 12:52:28PSTYesALC/BTG/TNDUSGS1180022.17 Fair NONE
3562018-07-17 12:48:11PSTYesALC/BTG/TNDUSGS1160022.21 Fair NONE
3552018-06-07 09:57:29PSTYesBG, MIUSGS-1120023.71 Poor NONE
3542018-06-07 09:51:35PSTYesBG, MIUSGS-1180023.68 Poor NONE
3532018-06-07 09:46:09PSTYesBG, MIUSGS-1230023.65 Poor NONE
3522018-06-07 09:40:46PSTYesBG, MIUSGS-1310023.63 Poor NONE
3512018-06-07 09:35:19PSTYesBG, MIUSGS-1340023.60 Poor NONE
3502018-06-07 09:27:51PSTYesBG, MIUSGS-1410023.56 Poor NONE
3492018-03-28 13:14:56PSTYesCC,BGUSGS-1510024.86 Fair NONE
3482018-03-28 13:08:03PSTYesCC,BGUSGS-1710024.82 Fair NONE
3472018-03-28 13:01:23PSTYesCC,BGUSGS-1870024.78 Fair NONE
3462018-03-28 12:54:46PSTYesCC,BGUSGS-1990024.68 Fair NONE
3452018-03-28 12:48:01PSTYesCC,BGUSGS-2130024.64 Fair NONE
3442018-03-28 12:41:32PSTYesCC,BGUSGS-2260024.58 Fair NONE
3432018-01-18 11:01:48PSTYesTV/BGUSGS742022.48 Fair NONE
3422018-01-18 10:54:23PSTYesTV/BGUSGS856022.49 Fair NONE
3412018-01-18 10:48:07PSTYesTV/BGUSGS918022.50 Fair NONE
3402018-01-18 10:41:23PSTYesTV/BGUSGS992022.52 Fair NONE
3392018-01-18 10:36:19PSTYesTV/BGUSGS1060022.55 Fair NONE
3382018-01-18 10:30:13PSTYesTV/BGUSGS1100022.58 Fair NONE
3372017-09-07 09:54:23PSTYesTV,BGUSGS1230022.57 Unspecified NONE
3362017-09-07 09:47:52PSTYesTV,BGUSGS1270022.63 Unspecified NONE
3352017-09-07 09:41:16PSTYesTV,BGUSGS1320022.70 Unspecified NONE
3342017-09-07 09:34:04PSTYesTV,BGUSGS1330022.76 Unspecified NONE
3332017-09-07 09:27:25PSTYesTV,BGUSGS1360022.83 Unspecified NONE
3322017-09-07 09:21:07PSTYesTV,BGUSGS1440022.90 Unspecified NONE
3312017-07-06 15:36:31PSTYesBTG/WFUSGS-568024.10 Unspecified NONE
3302017-07-06 15:30:54PSTYesBTG/WFUSGS-712024.07 Unspecified NONE
3292017-07-06 15:25:07PSTYesBTG/WFUSGS-833024.03 Unspecified NONE
3282017-07-06 15:19:11PSTYesBTG/WFUSGS-950024.00 Unspecified NONE
3272017-07-06 15:13:02PSTYesBTG/WFUSGS-1120023.98 Unspecified NONE
3262017-07-06 15:07:40PSTYesBTG/WFUSGS-1180023.95 Unspecified NONE
3252017-03-02 11:54:33PSTYesTV/BGUSGS495025.26 Good NONE
3242017-03-02 11:42:46PSTYesTV/BGUSGS521025.32 Good NONE
3232017-03-02 11:31:59PSTYesTV/BGUSGS542025.37 Good NONE
3222017-03-02 11:22:54PSTYesTV/BGUSGS562025.43 Good NONE
3212017-03-02 11:14:07PSTYesTV/BGUSGS567025.47 Good NONE
3202017-03-02 11:04:52PSTYesTV/BGUSGS618025.52 Good NONE
3192017-02-13 12:49:05PSTYesCV, RJUSGS536029.57 Good NONE
3182017-02-13 12:38:26PSTYesCV, RJUSGS518029.58 Good NONE
3172017-02-13 12:30:21PSTYesCV, RJUSGS512029.59 Good NONE
3162017-02-13 12:23:10PSTYesCV, RJUSGS511029.61 Good NONE
3152017-01-04 12:36:31PSTYestv,bgUSGS1750024.08 Fair NONE
3142017-01-04 12:27:48PSTYestv,bgUSGS1740024.17 Fair NONE
3132017-01-04 12:20:12PSTYestv,bgUSGS1750024.23 Fair NONE
3122017-01-04 12:12:34PSTYestv,bgUSGS1790024.30 Fair NONE
3112017-01-04 12:04:23PSTYestv,bgUSGS1780024.38 Fair NONE
3102017-01-04 11:55:54PSTYestv,bgUSGS1810024.47 Fair NONE
3092016-12-22 11:20:08PSTYesTM, BFUSGS-896025.67 PoorDebrisLightNONE
3082016-12-22 11:10:32PSTYesTM, BFUSGS-1060025.62 PoorDebrisLightNONE
3072016-12-22 09:57:24PSTYesTM, BFUSGS-2180024.99 PoorDebrisLightNONE
3062016-12-22 09:49:53PSTYesTM, BFUSGS-2250024.89 PoorDebrisLightNONE
3052016-11-15 11:18:39PSTYesND, TVUSGS-170022.27 Poor NONE
3042016-11-15 11:11:15PSTYesND, TVUSGS41722.22 Poor NONE
3032016-11-15 11:04:28PSTYesND, TVUSGS204022.17 Poor NONE
3022016-11-15 10:59:58PSTYesND, TVUSGS310022.14 Poor NONE
3012016-11-15 10:54:59PSTYesND, TVUSGS421022.12 Poor NONE
3002016-11-15 10:50:30PSTYesND, TVUSGS531022.11 Poor NONE
2992016-08-09 11:16:20PSTYesTV, BFUSGS1670023.19 Good NONE
2982016-08-09 11:07:44PSTYesTV, BFUSGS1620023.27 Good NONE
2972016-08-09 10:59:38PSTYesTV, BFUSGS1580023.35 Good NONE
2962016-08-09 10:52:20PSTYesTV, BFUSGS1540023.41 Good NONE
2952016-08-09 08:37:50PSTYesTV, BFUSGS-713023.96 Good NONE
2942016-08-09 08:30:49PSTYesTV, BFUSGS-834023.94 Good NONE
2932016-08-09 08:23:36PSTYesTV, BFUSGS-945023.90 Good NONE
2922016-08-09 08:16:28PSTYesTV, BFUSGS-1060023.88 Good NONE
2912016-08-09 08:09:27PSTYesTV, BFUSGS-1170023.85 Good NONE
2902016-08-09 08:03:10PSTYesTV, BFUSGS-1280023.82 Good NONE
2892016-06-23 10:31:39PSTYesTVWF,FCUSGS1410022.65 Unspecified NONE
2882016-06-23 10:22:20PSTYesTVWF,FCUSGS1460022.77 Unspecified NONE
2872016-06-23 10:13:30PSTYesTVWF,FCUSGS1520022.90 Unspecified NONE
2862016-06-23 10:03:34PSTYesTVWF,FCUSGS1590023.02 Unspecified NONE
2852016-06-23 09:53:39PSTYesTVWF,FCUSGS1650023.16 Unspecified NONE
2842016-06-23 09:45:43PSTYesTVWF,FCUSGS1650023.25 Unspecified NONE
2832016-02-24 12:13:02PSTYesRJ,CH,BFUSGS488021.54 Fair NONE
2822016-02-24 12:06:36PSTYesRJ,CH,BFUSGS594021.53 Fair NONE
2812016-02-24 12:00:39PSTYesRJ,CH,BFUSGS684021.53 Fair NONE
2802016-02-24 11:54:07PSTYesRJ,CH,BFUSGS741021.56 Fair NONE
2792016-02-24 11:47:37PSTYesRJ,CH,BFUSGS822021.59 Fair NONE
2782016-02-24 11:42:53PSTYesRJ,CH,BFUSGS813021.60 Fair NONE
2772015-07-21 10:17PSTYesAD/ETUSGS1990023.27 GoodClearNONE
2762015-07-21 10:03PSTYesAD/ETUSGS1930023.40 GoodClearNONE
2752015-07-21 09:56PSTYesAD/ETUSGS1890023.49 GoodClearNONE
2742015-07-21 09:45PSTYesAD/ETUSGS1880023.59 GoodClearNONE
2732015-07-21 08:12PSTYesAD/ETUSGS718024.56 GoodClearNONE
2722015-07-21 08:03PSTYesAD/ETUSGS558024.62 GoodClearNONE
2712015-06-30 15:17PSTYesAD/CEUSGS-1350023.88 UnspecifiedClearNONE
2702015-06-30 15:09PSTYesAD/CEUSGS-1490023.83 UnspecifiedClearNONE
2692015-06-30 13:05PSTYesAD/CEUSGS-2590022.63 UnspecifiedClearNONE
2682015-06-30 12:59PSTYesAD/CEUSGS-2540022.55 UnspecifiedClearNONE
2672015-06-30 12:45PSTYesAD/CEUSGS-2250022.35 UnspecifiedClearNONE
2662015-06-30 12:39PSTYesAD/CEUSGS-2150022.27 UnspecifiedClearNONE
2652015-03-10 17:10PSTYesAD/DAUSGS-2330022.76 UnspecifiedUnspecifedNONE
2642015-03-10 17:05PSTYesAD/DAUSGS-2280022.71 UnspecifiedUnspecifedNONE
2632015-03-10 16:59PSTYesAD/DAUSGS-2300022.66 UnspecifiedUnspecifedNONE
2622015-03-10 16:53PSTYesAD/DAUSGS-2240022.60 UnspecifiedUnspecifedNONE
2612015-03-10 16:46PSTYesAD/DAUSGS-2150022.52 UnspecifiedUnspecifedNONE
2602015-03-10 16:40PSTYesAD/DAUSGS-2070022.45 UnspecifiedUnspecifedNONE
2592015-03-10 16:33PSTYesAD/DAUSGS-2020022.36 UnspecifiedUnspecifedNONE
2582015-03-10 16:26PSTYesAD/DAUSGS-1900022.29 UnspecifiedUnspecifedNONE
2572015-03-10 16:20PSTYesAD/DAUSGS-1830022.22 UnspecifiedUnspecifedNONE
2562015-03-10 16:14PSTYesAD/DAUSGS-1740022.16 UnspecifiedUnspecifedNONE
2552015-03-10 16:07PSTYesAD/DAUSGS-1650022.09 UnspecifiedUnspecifedNONE
2542015-03-10 16:01PSTYesAD/DAUSGS-1520022.01 UnspecifiedUnspecifedNONE
2532015-03-10 15:56PSTYesAD/DAUSGS-1430021.94 UnspecifiedUnspecifedNONE
2522015-03-10 15:46PSTYesAD/DAUSGS-1260021.85 UnspecifiedUnspecifedNONE
2512015-03-10 15:41PSTYesAD/DAUSGS-1090021.76 UnspecifiedUnspecifedNONE
2502015-03-10 15:34PSTYesAD/DAUSGS-945021.68 UnspecifiedUnspecifedNONE
2492015-03-10 15:28PSTYesAD/DAUSGS-810021.61 UnspecifiedUnspecifedNONE
2482015-03-10 15:21PSTYesAD/DAUSGS-679021.55 UnspecifiedUnspecifedNONE
2472015-03-10 15:14PSTYesAD/DAUSGS-487021.46 UnspecifiedUnspecifedNONE
2462015-03-10 15:08PSTYesAD/DAUSGS-343021.41 UnspecifiedUnspecifedNONE
2452015-03-10 15:03PSTYesAD/DAUSGS-230021.36 UnspecifiedUnspecifedNONE
2442015-03-10 14:59PSTYesAD/DAUSGS-139021.33 UnspecifiedUnspecifedNONE
2432015-03-10 14:52PSTYesAD/DAUSGS-42.821.28 UnspecifiedUnspecifedNONE
2422015-03-10 14:48PSTYesAD/DAUSGS60021.25 UnspecifiedUnspecifedNONE
2412015-03-10 14:43PSTYesAD/DAUSGS143021.23 UnspecifiedUnspecifedNONE
2402015-03-10 14:39PSTYesAD/DAUSGS192021.22 UnspecifiedUnspecifedNONE
2392015-03-10 14:34PSTYesAD/DAUSGS270021.20 UnspecifiedUnspecifedNONE
2382015-03-10 14:27PSTYesAD/DAUSGS324021.18 UnspecifiedUnspecifedNONE
2372015-03-10 14:20PSTYesAD/DAUSGS413021.18 UnspecifiedUnspecifedNONE
2362015-03-10 14:09PSTYesAD/DAUSGS518021.18 UnspecifiedUnspecifedNONE
2352015-03-10 14:01PSTYesAD/DAUSGS642021.19 UnspecifiedUnspecifedNONE
2342015-03-10 13:53PSTYesAD/DAUSGS691021.22 UnspecifiedUnspecifedNONE
2332015-03-10 13:44PSTYesAD/DAUSGS762021.25 UnspecifiedUnspecifedNONE
2322015-03-10 13:35PSTYesAD/DAUSGS814021.30 UnspecifiedUnspecifedNONE
2312015-03-10 13:27PSTYesAD/DAUSGS849021.35 UnspecifiedUnspecifedNONE
2302015-03-10 13:18PSTYesAD/DAUSGS860021.40 UnspecifiedUnspecifedNONE
2292015-03-10 13:11PSTYesAD/DAUSGS952021.45 UnspecifiedUnspecifedNONE
2282015-03-10 13:02PSTYesAD/DAUSGS978021.51 UnspecifiedUnspecifedNONE
2272015-03-10 12:55PSTYesAD/DAUSGS1040021.57 UnspecifiedUnspecifedNONE
2262015-03-10 12:48PSTYesAD/DAUSGS1070021.61 UnspecifiedUnspecifedNONE
2252015-03-10 12:43PSTYesAD/DAUSGS1130021.67 UnspecifiedUnspecifedNONE
2242015-03-10 12:35PSTYesAD/DAUSGS1180021.72 UnspecifiedUnspecifedNONE
2232015-03-10 12:25PSTYesAD/DAUSGS1250021.81 UnspecifiedUnspecifedNONE
2222015-03-10 12:16PSTYesAD/DAUSGS1270021.89 UnspecifiedUnspecifedNONE
2212015-01-27 12:09PSTYesMVC/KBMUSGS12800 Unspecified NONE
2202015-01-27 12:01PSTYesMVC/KBMUSGS11500 Unspecified NONE
2192015-01-27 11:52PSTYesMVC/KBMUSGS10500 Unspecified NONE
2182015-01-27 11:41PSTYesMVC/KBMUSGS8500 Unspecified NONE
2172015-01-27 11:30PSTYesMVC/KBMUSGS7050 Unspecified NONE
2162015-01-27 11:15PSTYesMVC/KBMUSGS4000 Unspecified NONE
2152015-01-27 10:47PSTYesMVC/KBMUSGS-401 Unspecified NONE
2142015-01-27 10:35PSTYesMVC/KBMUSGS-1530 Unspecified NONE
2132015-01-27 10:23PSTYesMVC/KBMUSGS-2740 Unspecified NONE
2122015-01-27 10:13PSTYesMVC/KBMUSGS-4060 Unspecified NONE
2112015-01-27 10:04PSTYesMVC/KBMUSGS-5470 Unspecified NONE
2102015-01-27 09:33PSTYesMVC/KBMUSGS-8910 Unspecified NONE
2092015-01-27 09:21PSTYesMVC/KBMUSGS-10300 Unspecified NONE
2082015-01-27 08:57PSTYesMVC/KBMUSGS-13800 Unspecified NONE
2072015-01-27 08:50PSTYesMVC/KBMUSGS-14300 Unspecified NONE
2062015-01-27 08:40PSTYesMVC/KBMUSGS-15300 Unspecified NONE
2052015-01-27 08:28PSTYesMVC/KBMUSGS-16400 Unspecified NONE
2042015-01-27 08:14PSTYesMVC/KBMUSGS-18200 Unspecified NONE
2032015-01-15 15:40PSTYesAD/DAUSGS1890022.92 UnspecifiedUnspecifedNONE
2022015-01-15 15:27PSTYesAD/DAUSGS1970023.07 UnspecifiedUnspecifedNONE
2012015-01-15 15:15PSTYesAD/DAUSGS1930023.22 UnspecifiedUnspecifedNONE
2002015-01-15 15:01PSTYesAD/DAUSGS1970023.37 UnspecifiedUnspecifedNONE
1992015-01-15 14:39PSTYesAD/DAUSGS1920023.65 UnspecifiedUnspecifedNONE
1982015-01-15 14:19PSTYesAD/DAUSGS1810023.86 UnspecifiedUnspecifedNONE
1972015-01-15 14:07PSTYesAD/DAUSGS1700023.99 UnspecifiedUnspecifedNONE
1962015-01-15 13:56PSTYesAD/DAUSGS1570024.13 UnspecifiedUnspecifedNONE
1952014-09-30 12:54PSTYesCV/TVUSGS1330022.82 UnspecifiedUnspecifedNONE
1942014-09-30 12:42PSTYesCV/TVUSGS1360022.89 UnspecifiedUnspecifedNONE
1932014-09-30 12:31PSTYesCV/TVUSGS1390022.97 UnspecifiedUnspecifedNONE
1922014-09-30 12:18PSTYesCV/TVUSGS1390023.07 UnspecifiedUnspecifedNONE
1912014-09-30 11:21PSTYesCV/TVUSGS1280023.58 UnspecifiedUnspecifedNONE
1902014-09-30 11:06PSTYesCV/TVUSGS1170023.70 UnspecifiedUnspecifedNONE
1892014-09-30 10:54PSTYesCV/TVUSGS1080023.81 UnspecifiedUnspecifedNONE
1882014-09-30 10:35PSTYesCV/TVUSGS918023.95 UnspecifiedUnspecifedNONE
1872013-08-27 12:55PSTYesYESUSGS14600 Unspecified NONE
1862013-08-27 12:48PSTYesYESUSGS14900 Unspecified NONE
1852013-08-27 12:23PSTYesYESUSGS15500 Unspecified NONE
1842013-08-27 12:12PSTYesYESUSGS15400 Unspecified NONE
1832011-03-22 15:54PSTYesYESUSGS-14600 Unspecified NONE
1822011-03-22 15:47PSTYesYESUSGS-13300 Unspecified NONE
1812011-03-22 15:41PSTYesYESUSGS-11900 Unspecified NONE
1802011-03-22 15:32PSTYesYESUSGS-10500 Unspecified NONE
1792011-03-22 15:25PSTYesYESUSGS-8700 Unspecified NONE
1782011-03-22 15:17PSTYesYESUSGS-7170 Unspecified NONE
1772011-03-22 15:10PSTYesYESUSGS-5730 Unspecified NONE
1762011-03-22 15:02PSTYesYESUSGS-4390 Unspecified NONE
1752011-03-22 14:55PSTYesYESUSGS-2930 Unspecified NONE
1742011-03-22 14:47PSTYesYESUSGS-1890 Unspecified NONE
1732010-08-18 14:45PSTYesYESUSGS928023.67 Unspecified NONE
1722010-08-18 14:40PSTYesYESUSGS906023.70 Unspecified NONE
1712010-08-18 14:34PSTYesYESUSGS861023.73 Unspecified NONE
1702010-08-18 14:28PSTYesYESUSGS811023.76 Unspecified NONE
1692010-08-18 14:20PSTYesYESUSGS766023.81 Unspecified NONE
1682010-08-18 14:14PSTYesYESUSGS695023.81 Unspecified NONE
1672009-04-29 16:53PSTYesYESUSGS-14700 Unspecified NONE
1662009-04-29 16:48PSTYesYESUSGS-13900 Unspecified NONE
1652009-04-29 16:44PSTYesYESUSGS-12600 Unspecified NONE
1642009-04-29 16:38PSTYesYESUSGS-10600 Unspecified NONE
1632009-04-29 16:32PSTYesYESUSGS-9070 Unspecified NONE
1622009-04-29 16:28PSTYesYESUSGS-7300 Unspecified NONE
1612009-04-29 16:21PSTYesYESUSGS-5960 Unspecified NONE
1602009-04-29 16:16PSTYesYESUSGS-4170 Unspecified NONE
1592009-04-29 16:10PSTYesYESUSGS-2540 Unspecified NONE
1582009-04-29 16:06PSTYesYESUSGS-638 Unspecified NONE
1572009-04-29 16:00PSTYesYESUSGS661 Unspecified NONE
1562009-04-29 15:55PSTYesYESUSGS1990 Unspecified NONE
1552009-04-29 15:51PSTYesYESUSGS3110 Unspecified NONE
1542009-04-29 15:46PSTYesYESUSGS4040 Unspecified NONE
1532009-04-29 15:40PSTYesYESUSGS5120 Unspecified NONE
1522009-04-29 15:36PSTYesYESUSGS5970 Unspecified NONE
1512009-04-29 15:28PSTYesYESUSGS7340 Unspecified NONE
1502009-04-29 15:23PSTYesYESUSGS8240 Unspecified NONE
1492009-04-29 15:17PSTYesYESUSGS8620 Unspecified NONE
1482009-04-29 15:12PSTYesYESUSGS9110 Unspecified NONE
1472009-04-29 15:05PSTYesYESUSGS9740 Unspecified NONE
1462009-04-29 14:59PSTYesYESUSGS10100 Unspecified NONE
1452009-04-29 14:38PSTYesYESUSGS11600 Unspecified NONE
1442009-04-29 14:33PSTYesYESUSGS11600 Unspecified NONE
1432009-04-29 14:09PSTYesYESUSGS11900 Unspecified NONE
1422009-04-29 14:03PSTYesYESUSGS12000 Unspecified NONE
1412009-04-29 13:45PSTYesYESUSGS11900 Unspecified NONE
1402009-04-29 13:38PSTYesYESUSGS12100 Unspecified NONE
1392009-04-29 13:30PSTYesYESUSGS12100 Unspecified NONE
1382009-04-29 13:23PSTYesYESUSGS11900 Unspecified NONE
1372009-04-29 12:57PSTYesYESUSGS12500 Unspecified NONE
1362009-04-29 12:50PSTYesYESUSGS12100 Unspecified NONE
1352009-04-29 12:27PSTYesYESUSGS12400 Unspecified NONE
1342009-04-29 12:21PSTYesYESUSGS12600 Unspecified NONE
1332009-04-29 12:13PSTYesYESUSGS12900 Unspecified NONE
1322009-04-29 12:06PSTYesYESUSGS13300 Unspecified NONE
1312009-04-29 11:52PSTYesYESUSGS13500 Unspecified NONE
1302009-04-29 11:44PSTYesYESUSGS14200 Unspecified NONE
1292009-04-29 11:36PSTYesYESUSGS14500 Unspecified NONE
1282009-04-29 11:28PSTYesYESUSGS15100 Unspecified NONE
1272009-04-29 11:10PSTYesYESUSGS16200 Unspecified NONE
1262009-04-29 11:04PSTYesYESUSGS16600 Unspecified NONE
1252009-04-29 10:56PSTYesYESUSGS16700 Unspecified NONE
1242009-04-29 10:50PSTYesYESUSGS17100 Unspecified NONE
1232009-04-29 10:29PSTYesYESUSGS18200 Unspecified NONE
1222009-04-29 10:23PSTYesYESUSGS18900 Unspecified NONE
1212009-04-29 10:05PSTYesYESUSGS19700 Unspecified NONE
1202009-04-29 09:59PSTYesYESUSGS20100 Unspecified NONE
1192009-04-29 09:51PSTYesYESUSGS20600 Unspecified NONE
1182009-04-29 09:46PSTYesYESUSGS20500 Unspecified NONE
1172009-04-29 09:20PSTYesYESUSGS21000 Unspecified NONE
1162009-04-29 09:12PSTYesYESUSGS21200 Unspecified NONE
1152009-04-29 08:54PSTYesYESUSGS20000 Unspecified NONE
1142009-04-29 08:48PSTYesYESUSGS19600 Unspecified NONE
1132009-04-29 08:36PSTYesYESUSGS18400 Unspecified NONE
1122009-04-29 08:29PSTYesYESUSGS17600 Unspecified NONE
1112009-04-29 08:18PSTYesYESUSGS16200 Unspecified NONE
1102009-04-29 08:12PSTYesYESUSGS15400 Unspecified NONE
1092009-04-29 07:58PSTYesYESUSGS13800 Unspecified NONE
1082009-04-29 07:52PSTYesYESUSGS12700 Unspecified NONE
1072009-04-29 07:43PSTYesYESUSGS11600 Unspecified NONE
1062009-04-29 07:37PSTYesYESUSGS10200 Unspecified NONE
1052009-04-29 07:30PSTYesYESUSGS8760 Unspecified NONE
1042009-04-29 07:21PSTYesYESUSGS7110 Unspecified NONE
1032009-04-29 07:13PSTYesYESUSGS5410 Unspecified NONE
1022009-04-29 07:07PSTYesYESUSGS3860 Unspecified NONE
1012009-04-29 06:58PSTYesYESUSGS2390 Unspecified NONE
1002009-04-29 06:52PSTYesYESUSGS857 Unspecified NONE
992009-04-29 06:44PSTYesYESUSGS-835 Unspecified NONE
982009-04-29 06:37PSTYesYESUSGS-2370 Unspecified NONE
972009-04-29 06:29PSTYesYESUSGS-4070 Unspecified NONE
962009-04-29 06:22PSTYesYESUSGS-5280 Unspecified NONE
952009-04-29 06:16PSTYesYESUSGS-6660 Unspecified NONE
942009-04-29 06:10PSTYesYESUSGS-7760 Unspecified NONE
932009-03-09 13:21PSTYesYESUSGS-24600 Unspecified NONE
922009-03-09 13:15PSTYesYESUSGS-25300 Unspecified NONE
912009-03-09 13:10PSTYesYESUSGS-25000 Unspecified NONE
902009-03-09 13:05PSTYesYESUSGS-25700 Unspecified NONE
892009-03-09 13:00PSTYesYESUSGS-27000 Unspecified NONE
882009-03-09 12:55PSTYesYESUSGS-27100 Unspecified NONE
872009-01-06 12:43PSTYesYESUSGS7490 Unspecified NONE
862009-01-06 12:33PSTYesYESUSGS6010 Unspecified NONE
852009-01-06 12:24PSTYesYESUSGS4220 Unspecified NONE
842009-01-06 12:14PSTYesYESUSGS2870 Unspecified NONE
832009-01-06 12:04PSTYesYESUSGS1440 Unspecified NONE
822009-01-06 11:55PSTYesYESUSGS652 Unspecified NONE
812009-01-06 11:45PSTYesYESUSGS-490 Unspecified NONE
802009-01-06 11:38PSTYesYESUSGS-1230 Unspecified NONE
792009-01-06 11:30PSTYesYESUSGS-2250 Unspecified NONE
782009-01-06 11:22PSTYesYESUSGS-3110 Unspecified NONE
772008-08-21 16:59PSTYesPRS/MMxUSGS-2380023.88 Unspecified NONE
762008-08-21 16:54PSTYesPRS/MMxUSGS-2410023.82 Unspecified NONE
752008-08-21 16:48PSTYesPRS/MMxUSGS-2420023.76 Unspecified NONE
742008-08-21 16:43PSTYesPRS/MMxUSGS-2470023.70 Unspecified NONE
732008-08-21 16:37PSTYesPRS/MMxUSGS-2520023.64 Unspecified NONE
722008-08-21 16:32PSTYesPRS/MMxUSGS-2520023.59 Unspecified NONE
712008-08-21 16:26PSTYesPRS/MMxUSGS-2540023.53 Unspecified NONE
702008-08-21 16:21PSTYesPRS/MMxUSGS-2530023.46 Unspecified NONE
692008-08-21 16:15PSTYesPRS/MMxUSGS-2500023.40 Unspecified NONE
682008-08-21 16:09PSTYesPRS/MMxUSGS-2450023.33 Unspecified NONE
672008-08-21 16:04PSTYesPRS/MMxUSGS-2460023.26 Unspecified NONE
662008-08-21 15:58PSTYesPRS/MMxUSGS-2380023.19 Unspecified NONE
652008-08-21 15:52PSTYesPRS/MMxUSGS-2330023.13 Unspecified NONE
642008-08-21 15:46PSTYesPRS/MMxUSGS-2270023.07 Unspecified NONE
632008-08-21 15:40PSTYesPRS/MMxUSGS-2200023.00 Unspecified NONE
622008-08-21 15:34PSTYesPRS/MMxUSGS-2080022.91 Unspecified NONE
612008-08-21 15:26PSTYesPRS/MMxUSGS-2010022.82 Unspecified NONE
602008-08-21 15:18PSTYesPRS/MMxUSGS-1870022.74 Unspecified NONE
592008-08-21 15:11PSTYesPRS/MMxUSGS-1790022.65 Unspecified NONE
582008-08-21 15:04PSTYesPRS/MMxUSGS-1630022.57 Unspecified NONE
572008-08-21 14:57PSTYesPRS/MMxUSGS-1520022.48 Unspecified NONE
562008-08-21 14:51PSTYesPRS/MMxUSGS-1390022.41 Unspecified NONE
552008-08-21 14:44PSTYesPRS/MMxUSGS-1250022.33 Unspecified NONE
542008-08-21 14:33PSTYesPRS/MMxUSGS-955022.19 Unspecified NONE
532008-08-21 13:50PSTYesPRS/MMxUSGS-43221.77 Unspecified NONE
522008-08-21 13:43PSTYesPRS/MMxUSGS134021.73 Unspecified NONE
512008-08-21 13:38PSTYesPRS/MMxUSGS161021.71 Unspecified NONE
502008-08-21 13:32PSTYesPRS/MMxUSGS268021.69 Unspecified NONE
492008-08-21 13:26PSTYesPRS/MMxUSGS410021.68 Unspecified NONE
482008-08-21 13:20PSTYesPRS/MMxUSGS459021.69 Unspecified NONE
472008-08-21 13:14PSTYesPRS/MMxUSGS611021.69 Unspecified NONE
462008-08-21 13:08PSTYesPRS/MMxUSGS579021.70 Unspecified NONE
452008-08-21 13:02PSTYesPRS/MMxUSGS680021.71 Unspecified NONE
442008-08-21 12:56PSTYesPRS/MMxUSGS754021.72 Unspecified NONE
432008-08-21 12:50PSTYesPRS/MMxUSGS871021.74 Unspecified NONE
422008-08-21 12:43PSTYesPRS/MMxUSGS854021.77 Unspecified NONE
412008-08-21 12:37PSTYesPRS/MMxUSGS950021.81 Unspecified NONE
402008-08-21 12:30PSTYesPRS/MMxUSGS993021.87 Unspecified NONE
392008-08-21 12:25PSTYesPRS/MMxUSGS1060021.90 Unspecified NONE
382008-08-21 12:18PSTYesPRS/MMxUSGS1070021.94 Unspecified NONE
372008-08-21 12:11PSTYesPRS/MMxUSGS1100021.99 Unspecified NONE
362008-08-21 12:05PSTYesPRS/MMxUSGS1180022.03 Unspecified NONE
352008-08-21 12:00PSTYesPRS/MMxUSGS1220022.07 Unspecified NONE
342008-08-21 11:55PSTYesPRS/MMxUSGS1230022.11 Unspecified NONE
332008-08-21 11:50PSTYesPRS/MMxUSGS1260022.15 Unspecified NONE
322008-08-21 11:44PSTYesPRS/MMxUSGS1310022.19 Unspecified NONE
312008-08-21 11:40PSTYesPRS/MMxUSGS1310022.23 Unspecified NONE
302008-08-21 11:34PSTYesPRS/MMxUSGS1290022.28 Unspecified NONE
292008-08-21 11:29PSTYesPRS/MMxUSGS1380022.32 Unspecified NONE
282008-08-21 11:23PSTYesPRS/MMxUSGS1420022.36 Unspecified NONE
272008-08-21 11:18PSTYesPRS/MMxUSGS1480022.41 Unspecified NONE
262008-08-21 11:12PSTYesPRS/MMxUSGS1490022.46 Unspecified NONE
252008-08-21 11:06PSTYesPRS/MMxUSGS1550022.52 Unspecified NONE
242008-08-21 11:01PSTYesPRS/MMxUSGS1590022.57 Unspecified NONE
232008-08-21 10:55PSTYesPRS/MMxUSGS1600022.62 Unspecified NONE
222008-08-21 10:50PSTYesPRS/MMxUSGS1610022.68 Unspecified NONE
212008-08-21 10:44PSTYesPRS/MMxUSGS1630022.73 Unspecified NONE
202008-08-21 10:31PSTYesPRS/MMxUSGS1670022.86 Unspecified NONE
192008-08-21 10:26PSTYesPRS/MMxUSGS1640022.91 Unspecified NONE
182008-08-21 10:17PSTYesPRS/MMxUSGS1670023.01 Unspecified NONE
172008-08-21 10:11PSTYesPRS/MMxUSGS1700023.07 Unspecified NONE
162008-08-21 10:05PSTYesPRS/MMxUSGS1640023.13 Unspecified NONE
152008-08-21 09:54PSTYesPRS/MMxUSGS1650023.25 Unspecified NONE
142008-08-21 09:48PSTYesPRS/MMxUSGS1650023.32 Unspecified NONE
132008-08-21 09:41PSTYesPRS/MMxUSGS1620023.39 Unspecified NONE
122008-08-21 09:35PSTYesPRS/MMxUSGS1570023.44 Unspecified NONE
112008-08-21 09:29PSTYesPRS/MMxUSGS1600023.50 Unspecified NONE
102008-08-21 09:23PSTYesPRS/MMxUSGS1530023.55 Unspecified NONE
92008-08-21 09:16PSTYesPRS/MMxUSGS1520023.61 Unspecified NONE
82008-08-21 09:10PSTYesPRS/MMxUSGS1430023.67 Unspecified NONE
72008-08-21 09:04PSTYesPRS/MMxUSGS1380023.73 Unspecified NONE
62008-08-21 08:58PSTYesPRS/MMxUSGS1330023.79 Unspecified NONE
52008-08-21 08:52PSTYesPRS/MMxUSGS1300023.84 Unspecified NONE
42008-08-21 08:47PSTYesPRS/MMxUSGS1200023.88 Unspecified NONE
32008-08-21 08:40PSTYesPRS/MMxUSGS1160023.93 Unspecified NONE
22008-08-21 08:35PSTYesPRS/MMxUSGS1030023.99 Unspecified NONE
12008-08-21 08:29PSTYesPRS/MMxUSGS985024.04 Unspecified NONE